Theta_e
344 340 347 341 327 323 316 314 320 319 319 325 326 325 325 325 325 325 340 339 346 352 357 356 358 357 354 354 355 357 358 359 359 359 359 359 358 357 356 354 353 350 348 348 351 353 355 356 357
339 342 342 336 315 310 312 319 317 321 324 327 327 327 325 329 336 339 337 338 348 351 355 356 358 356 354 354 355 358 358 357 357 357 358 358 357 355 353 351 348 348 352 353 354 355 356 357 357
344 342 331 326 318 310 313 319 321 322 326 325 325 328 327 333 337 339 341 340 346 348 349 353 357 356 354 354 355 356 357 357 356 357 357 357 355 353 350 347 347 351 353 354 355 355 356 356 356
335 334 329 319 314 318 319 322 324 322 324 325 324 326 336 342 339 342 339 339 344 344 348 354 356 356 354 353 354 355 356 356 355 356 355 354 353 350 347 346 349 353 354 355 354 353 352 353 354
331 327 319 317 315 319 323 324 324 321 320 322 323 323 331 340 343 339 338 341 342 343 348 350 356 355 353 352 353 354 355 355 355 354 354 353 351 348 345 347 352 354 354 353 351 350 348 350 355
322 324 315 312 315 320 324 326 324 320 321 324 324 326 334 343 339 338 339 340 341 340 345 350 354 354 355 352 353 353 353 354 354 354 354 352 349 345 345 350 353 354 354 353 350 354 354 354 358
320 321 314 316 317 319 323 327 322 320 322 323 327 324 336 339 340 341 340 339 339 338 342 344 345 351 352 353 353 352 352 352 352 353 352 351 347 346 349 352 353 354 354 349 357 358 357 360 358
323 320 315 317 315 318 324 324 323 323 322 329 329 320 331 339 342 341 339 338 337 336 339 337 340 342 344 348 352 352 351 351 351 352 351 350 348 349 352 355 355 353 350 350 359 359 359 358 356
326 315 314 314 316 319 324 323 324 325 325 326 329 329 336 343 341 337 335 334 333 333 333 335 335 336 337 337 347 350 350 351 351 350 351 351 351 352 354 358 355 349 350 359 360 359 358 355 354
320 317 314 318 318 318 321 321 323 322 322 324 329 335 339 339 337 332 330 329 329 329 330 333 333 334 334 334 342 341 341 343 344 345 348 351 354 355 354 355 350 346 357 359 359 358 357 352 343
321 316 318 318 317 318 318 319 323 321 320 323 325 332 334 334 334 331 329 328 328 328 330 332 335 336 334 333 335 337 339 342 346 351 353 357 352 353 351 352 341 338 355 349 351 354 352 346 339
315 320 319 318 317 316 316 319 319 321 323 327 329 335 332 330 329 328 327 327 327 327 329 332 336 337 338 336 335 341 342 346 349 353 357 357 352 354 353 352 349 343 342 348 347 344 342 340 340
316 318 319 318 318 318 317 316 317 320 326 328 332 334 331 329 328 328 327 327 327 326 329 332 336 339 341 342 341 345 347 348 351 354 358 356 354 353 352 355 351 343 342 339 340 342 342 340 339
318 317 317 319 319 319 316 317 318 321 326 327 331 332 332 331 330 328 327 326 327 329 329 332 334 341 341 347 348 348 349 351 352 353 355 358 355 355 353 355 348 344 342 338 337 341 342 340 339
316 313 318 319 320 318 320 315 316 322 325 327 329 332 332 332 333 330 330 328 328 329 331 332 335 339 344 345 349 349 350 351 352 351 355 358 359 360 364 353 347 344 344 339 337 340 342 340 340
312 313 310 317 319 319 319 312 319 324 324 324 329 331 331 332 333 333 334 332 331 331 332 334 333 336 343 347 349 347 351 352 351 351 352 357 358 362 362 354 348 345 344 340 335 336 338 338 339
310 305 307 310 318 317 318 314 321 325 325 323 327 330 331 332 333 336 336 336 333 332 333 333 339 334 340 350 347 351 358 352 350 349 350 358 356 357 361 354 350 348 344 340 335 334 338 337 338
305 306 307 308 313 314 313 315 318 321 321 322 323 326 329 331 332 337 338 338 338 335 339 342 339 345 350 346 351 346 347 348 350 348 349 355 355 356 361 355 351 348 344 341 336 338 336 337 337
308 307 307 310 312 310 311 311 314 318 318 319 320 322 326 330 334 337 339 339 339 340 341 344 343 349 346 341 341 342 342 345 347 348 356 358 356 358 363 355 350 349 347 346 343 336 338 334 338
307 305 305 308 311 310 310 310 314 316 316 318 319 320 322 327 332 335 338 339 340 342 345 344 344 349 348 341 344 343 344 344 345 348 356 359 358 362 359 358 352 350 344 349 345 344 333 333 337
306 305 306 306 310 311 309 307 310 314 317 318 320 322 322 323 327 334 335 339 340 341 348 345 346 348 351 347 345 347 347 345 343 345 347 354 358 359 360 357 354 351 350 341 343 343 344 329 334
304 310 308 307 306 302 311 301 309 312 313 317 319 320 321 323 327 332 336 337 340 340 342 348 350 351 351 352 344 344 340 338 341 343 346 352 360 361 359 357 353 350 344 342 339 340 338 341 332
307 311 308 308 307 307 307 304 308 312 310 313 316 318 322 325 326 329 333 337 338 341 341 344 355 356 353 352 346 343 343 341 342 345 355 359 361 364 354 352 352 347 343 346 340 337 334 335 333
312 308 309 309 307 300 306 305 306 309 312 314 318 319 322 323 325 327 330 332 335 338 339 343 352 356 359 357 353 347 344 344 342 346 347 351 355 358 358 352 347 344 342 343 338 337 339 330 335
310 307 300 300 301 300 308 305 307 313 315 316 317 321 325 327 330 331 333 334 337 340 343 343 350 354 358 358 356 353 348 351 347 352 349 352 354 354 355 353 348 342 339 334 337 339 337 334 336
309 308 302 297 298 302 309 303 308 316 318 319 323 326 327 328 331 332 334 335 337 339 342 344 344 344 348 357 357 358 357 349 348 349 348 349 354 353 352 351 348 343 339 338 334 334 336 337 337
308 306 311 305 307 302 305 309 313 317 318 321 323 324 325 326 327 328 329 332 335 337 340 341 343 346 344 344 357 357 358 358 351 352 355 348 357 354 353 351 348 346 343 337 338 336 337 334 334
311 313 305 306 298 297 303 305 306 313 317 320 321 322 324 325 325 326 327 329 330 332 335 337 340 341 345 345 343 349 357 358 358 355 355 356 351 359 353 352 349 346 343 341 341 339 338 334 333
309 308 308 308 306 299 297 302 318 319 321 320 320 321 322 323 323 324 325 326 327 328 329 331 332 335 338 343 348 346 345 351 355 356 356 357 358 360 354 353 350 347 344 343 341 340 338 334 331
311 309 308 302 301 305 304 304 320 319 319 319 320 320 322 323 323 323 324 324 324 325 325 326 328 328 330 335 339 348 350 347 353 353 356 358 357 359 354 352 350 348 345 344 341 338 335 332 329
Wind_Speed
11 13 12 8 9 3 11 13 3 9 5 6 8 7 14 13 16 8 13 10 19 22 18 17 17 15 15 14 14 14 14 13 13 12 11 11 11 10 9 9 9 8 7 7 7 7 6 6 6
13 13 9 9 4 5 9 3 15 14 11 7 5 2 3 14 13 12 13 14 19 20 18 18 15 15 15 13 13 13 12 12 12 11 11 10 9 9 8 8 8 7 7 6 5 4 4 4 5
17 13 12 15 19 8 13 14 12 10 6 3 4 4 6 12 4 10 17 16 19 17 16 17 15 14 14 13 13 13 12 12 11 11 10 9 8 7 7 7 7 6 5 4 3 4 4 4 4
9 11 9 6 9 11 14 13 11 3 8 4 6 12 9 6 6 8 17 18 17 16 18 18 15 14 14 13 12 12 11 11 10 10 9 7 7 6 5 5 5 4 3 3 3 3 3 2 2
9 10 15 12 14 10 9 10 4 7 7 10 5 12 8 7 9 16 17 15 15 16 20 17 14 13 13 12 12 11 10 9 9 8 7 6 5 4 4 4 3 3 3 3 4 4 2 2 4
10 9 5 6 11 7 8 7 6 5 6 9 8 12 11 10 13 15 15 14 13 14 18 17 14 12 12 12 11 10 9 9 8 8 7 6 4 3 2 2 3 3 4 4 5 4 3 6 6
14 13 5 13 11 12 11 3 3 10 7 16 3 13 9 11 14 13 13 12 12 12 17 15 15 13 12 11 11 10 9 9 8 8 7 6 4 4 4 3 3 3 4 4 6 8 10 10 8
10 14 9 1 2 13 7 5 8 6 13 6 7 10 11 13 14 13 13 12 12 11 14 15 15 15 14 14 12 11 10 9 8 8 8 7 6 6 7 6 5 4 5 6 8 11 12 10 6
12 14 0 6 9 12 7 8 4 5 7 2 9 9 15 16 15 14 13 13 12 10 12 15 15 16 15 16 13 12 11 11 10 10 9 9 10 10 11 9 7 7 7 9 11 13 13 10 5
13 9 4 11 6 8 9 6 6 8 7 8 10 11 15 16 15 15 14 13 14 13 13 13 15 15 15 13 15 13 12 11 11 11 11 11 11 6 8 10 8 7 9 10 10 14 16 19 10
14 15 8 5 8 6 4 4 2 2 6 6 9 14 15 16 14 14 14 14 14 14 11 14 13 13 15 13 11 8 8 9 9 12 11 13 6 5 6 8 7 7 10 8 9 9 10 11 4
12 12 6 2 4 3 4 4 3 5 3 7 12 17 17 16 15 14 14 14 15 16 15 15 14 12 11 10 10 11 10 10 9 10 11 5 6 8 9 7 11 6 7 9 9 6 7 3 2
12 14 6 4 7 5 4 8 9 10 7 3 15 17 17 15 15 13 13 13 15 16 16 15 15 13 11 11 10 10 9 9 10 10 11 7 8 5 5 2 1 4 4 6 4 7 5 4 4
5 7 11 10 10 6 9 10 5 11 8 8 13 15 16 16 16 14 13 14 14 15 16 16 16 14 12 10 12 9 9 10 9 10 11 11 7 5 6 6 4 3 3 3 4 6 5 5 5
8 14 15 15 14 6 4 13 11 7 12 12 12 12 15 16 17 16 15 14 16 15 16 16 16 17 14 14 10 9 9 9 9 9 11 11 9 6 7 4 5 4 4 4 4 4 5 4 4
15 17 16 17 16 10 7 18 18 14 10 12 12 12 13 16 18 17 17 16 17 16 17 16 16 19 17 14 12 10 9 9 10 9 10 12 11 10 8 5 6 5 4 4 4 5 5 5 5
16 14 18 20 10 10 9 19 11 8 11 10 13 12 13 15 17 17 18 18 18 17 18 18 16 18 19 14 12 12 11 10 10 10 9 13 13 13 7 7 6 5 4 4 5 5 6 5 5
15 19 15 14 6 9 16 16 17 9 10 10 13 13 12 14 17 17 18 19 19 19 16 16 15 15 15 13 10 11 11 11 11 10 11 12 11 13 10 7 6 7 6 5 5 3 5 5 5
14 14 14 13 7 6 13 17 19 12 9 9 15 13 15 14 15 18 19 20 22 20 19 18 16 15 11 13 14 13 13 12 12 12 12 11 12 12 10 9 8 7 6 5 5 4 5 6 6
11 13 13 14 16 16 14 18 19 13 17 10 14 10 10 15 15 18 21 20 20 20 19 18 19 17 15 12 11 12 11 13 13 12 12 11 12 12 11 10 9 9 6 6 6 5 5 8 5
12 13 11 12 14 9 15 19 19 18 18 14 9 11 14 14 13 18 19 21 20 21 20 19 17 16 15 17 11 10 10 11 12 11 12 13 14 14 11 12 9 10 6 8 7 7 8 7 6
13 16 9 7 10 13 13 12 14 21 17 12 12 13 14 16 8 7 17 19 21 20 20 21 19 18 17 18 15 18 14 14 12 12 13 12 14 14 14 11 8 10 9 8 10 12 11 5 6
6 6 5 8 12 13 15 9 10 8 5 8 13 4 15 14 13 5 9 15 18 19 19 19 19 19 19 19 21 16 18 14 12 12 13 14 14 13 12 11 13 9 10 9 12 11 10 9 7
12 6 13 13 13 13 15 13 11 3 8 5 10 13 9 8 7 6 7 7 5 13 18 18 19 20 21 19 19 21 19 18 14 15 14 12 12 14 16 18 16 16 15 14 12 12 13 9 9
11 9 10 11 12 13 5 6 9 12 8 9 9 10 8 7 9 9 10 10 10 11 13 14 10 18 21 22 22 23 22 18 21 16 15 15 14 13 16 18 17 14 14 12 11 10 10 10 11
18 12 11 13 11 10 11 6 8 9 10 10 10 9 8 9 9 9 11 10 8 9 11 11 11 12 11 20 22 19 21 15 16 19 16 16 14 16 20 21 20 20 17 16 13 10 11 13 12
5 11 9 12 14 12 15 15 15 18 13 12 10 7 7 8 9 10 12 11 11 11 10 11 12 10 11 13 14 17 17 19 17 20 17 18 16 15 19 22 21 19 20 18 16 13 14 13 14
11 11 8 10 14 15 13 13 9 14 12 10 9 8 8 8 11 11 11 11 11 11 12 12 11 13 11 8 10 11 14 16 16 17 19 19 21 17 20 20 20 19 18 20 18 15 14 15 11
6 12 9 9 10 13 13 7 12 10 9 7 7 8 9 10 11 11 11 12 12 13 13 13 13 14 13 15 14 9 10 13 14 16 17 18 18 17 20 20 19 19 20 20 18 17 16 18 14
10 15 15 12 12 12 14 10 12 8 9 4 6 8 9 10 11 12 12 12 13 14 14 14 13 14 14 15 15 16 10 11 12 13 16 16 19 19 20 21 21 20 21 21 21 20 18 19 18
Wind_Direction
188 203 224 244 248 238 224 98 171 102 103 47 35 13 8 25 10 54 113 140 129 125 133 143 142 144 148 150 148 143 142 141 140 139 134 126 112 102 94 85 77 71 64 59 56 53 49 45 42
206 215 232 268 99 276 83 118 59 44 61 55 45 129 139 81 64 116 123 135 131 126 149 149 144 143 150 153 149 144 143 144 142 139 132 121 111 101 88 74 66 65 65 59 55 57 60 60 53
266 240 274 238 167 204 86 71 82 77 85 114 148 344 41 63 104 127 112 141 122 137 152 131 141 150 153 155 152 146 143 144 145 142 131 119 107 93 82 69 61 56 55 52 45 41 47 50 46
225 224 234 335 291 35 61 94 69 106 127 33 35 102 104 27 113 108 150 142 140 144 136 133 143 151 156 157 157 150 148 149 146 141 133 122 111 100 80 71 67 64 65 59 49 41 49 78 96
242 260 260 222 68 90 80 47 62 87 75 59 345 84 70 91 99 136 143 147 158 145 117 143 146 156 157 159 157 157 155 150 148 145 136 135 128 108 87 74 73 77 76 55 30 6 4 114 128
245 254 285 313 94 97 80 69 54 20 63 91 93 107 81 117 139 145 154 158 149 137 127 130 146 156 157 161 159 159 158 162 158 152 155 156 149 123 117 111 101 91 67 37 24 28 97 127 117
254 268 260 231 109 80 57 56 76 70 46 48 29 69 105 154 143 152 158 154 139 140 133 149 160 162 164 161 161 162 162 167 161 167 172 172 167 171 184 151 115 85 69 61 82 84 106 109 104
285 279 206 201 88 82 107 131 96 323 81 86 331 26 134 143 155 155 161 156 146 157 138 152 158 164 170 163 168 167 169 170 171 180 184 181 188 201 204 182 128 91 83 96 101 104 104 102 113
248 269 321 69 53 109 141 129 147 93 129 57 60 47 119 136 160 164 161 164 159 164 153 156 163 158 174 159 160 171 172 177 181 189 194 198 198 181 164 88 101 102 108 113 121 123 122 122 168
242 273 39 42 50 47 100 336 129 207 154 145 114 96 119 153 166 169 172 171 168 171 164 160 165 159 170 155 153 180 172 183 189 189 181 219 201 124 128 112 120 119 123 126 148 158 163 172 161
225 268 66 85 33 345 41 205 168 220 230 137 152 138 148 158 169 174 180 176 172 170 165 163 166 170 159 158 164 175 172 178 191 194 193 228 171 166 192 150 159 156 176 154 178 179 205 231 56
247 242 280 3 131 268 308 349 233 232 314 53 122 148 156 167 175 180 180 174 171 168 168 166 162 180 165 156 179 175 179 178 187 192 198 214 213 174 226 188 144 182 185 143 188 197 59 81 9
240 270 247 233 244 258 330 267 252 265 182 149 124 153 163 172 175 179 180 174 170 169 168 178 165 181 172 182 188 184 193 188 188 183 192 201 224 182 212 86 186 197 138 190 201 102 166 147 108
310 281 282 262 259 234 244 264 207 228 172 166 154 171 173 175 178 174 182 178 176 171 169 180 175 172 193 210 192 192 203 182 195 187 184 227 222 182 220 126 233 187 212 190 191 145 166 193 135
272 259 251 241 235 249 271 260 205 235 163 178 178 184 178 182 179 178 182 184 179 174 177 181 187 173 204 192 207 212 188 195 207 196 196 201 215 187 282 173 207 191 217 204 245 153 187 185 140
245 248 251 239 219 212 231 272 200 169 171 192 188 194 192 186 185 180 180 186 179 182 186 190 193 178 193 192 198 210 208 216 201 211 188 194 207 239 202 214 195 183 201 215 204 218 186 182 169
230 250 235 247 178 256 200 258 126 143 182 227 186 210 201 194 196 182 182 185 184 193 185 195 194 198 186 210 201 216 212 217 217 209 209 187 214 209 218 228 186 150 207 220 229 206 207 168 189
236 222 233 276 170 193 255 232 273 253 209 232 243 209 202 208 195 188 195 187 191 188 190 197 196 212 184 190 216 207 219 213 227 216 216 192 210 215 186 218 189 180 188 208 233 239 208 181 197
327 306 311 307 267 278 275 284 275 266 260 216 248 234 200 210 208 189 196 193 189 192 192 189 203 195 211 194 200 212 209 213 215 224 216 213 205 208 180 224 177 200 208 205 172 199 239 216 181
263 265 263 266 272 268 266 265 262 251 266 237 263 266 258 189 202 203 193 205 199 193 192 196 197 199 200 204 211 215 218 216 214 212 210 208 208 215 191 216 176 186 196 176 160 209 219 244 189
241 264 263 272 298 251 263 261 263 260 257 258 274 269 269 282 210 192 200 196 209 206 194 199 203 204 203 216 205 219 233 233 219 217 209 194 207 209 201 200 187 171 226 163 164 191 235 222 199
260 217 238 272 262 264 215 268 251 219 229 204 239 242 242 235 183 268 197 202 206 218 208 202 199 208 204 199 220 211 217 224 223 215 217 197 199 207 185 191 194 188 193 181 182 179 184 233 235
283 12 271 275 274 274 262 237 274 96 196 254 242 258 26 7 11 346 212 206 212 214 226 207 202 203 212 205 212 211 216 218 223 215 221 200 184 198 177 188 187 174 203 202 185 188 190 162 229
277 263 247 243 253 252 236 259 259 276 167 182 79 61 37 30 51 38 16 353 273 223 219 214 205 205 202 213 215 226 220 218 219 218 213 204 188 187 187 185 190 195 187 193 189 190 193 187 199
233 250 253 229 227 233 154 247 289 328 42 30 42 76 66 39 58 50 44 31 23 1 347 335 225 209 205 207 214 213 228 223 218 228 214 202 194 188 192 195 198 187 198 191 178 191 195 193 215
209 239 263 302 298 308 133 242 269 86 81 87 79 72 44 31 37 34 54 31 37 23 11 352 334 310 266 213 220 223 218 225 228 219 230 213 205 195 190 196 196 191 182 188 182 183 205 203 211
270 235 271 290 275 267 275 276 244 139 117 108 99 84 52 32 33 29 33 23 10 23 38 18 353 323 306 282 246 224 226 226 233 235 223 239 216 196 203 194 200 198 182 183 182 194 200 200 200
259 309 272 225 251 260 256 275 36 126 116 110 96 71 53 18 21 20 19 26 10 12 18 17 358 350 341 313 295 266 231 233 235 236 241 235 236 199 203 202 199 197 192 184 185 188 197 204 198
191 230 225 256 301 303 297 298 73 71 65 85 77 44 29 9 14 3 5 12 8 10 12 9 356 351 359 351 331 281 265 257 242 244 235 246 234 215 205 201 203 199 195 186 189 190 196 199 193
292 287 289 280 274 272 286 285 103 115 112 65 47 33 10 9 6 349 359 1 1 0 1 355 353 353 354 352 337 329 274 259 245 255 242 234 242 226 208 214 202 206 200 190 187 190 197 193 191